| time (UTC) | temp C | wind direction | speed KPH | gust KPH | rain 1hr cm | rain 24hr cm | rain mn cm | humidity % | barometer mb |
| 20260503200158 | 27 | 23 | 8.0 | 11.3 | 0.00 | 0.00 | 0.00 | ||
| 20260503195658 | 26 | 68 | 4.8 | 6.4 | 0.00 | 0.00 | 0.00 | ||
| 20260503195158 | 27 | 23 | 8.0 | 11.3 | 0.00 | 0.00 | 0.00 | ||
| 20260503194658 | 27 | 113 | 1.6 | 4.8 | 0.00 | 0.00 | 0.00 | ||
| 20260503194159 | 27 | 45 | 4.8 | 6.4 | 0.00 | 0.00 | 0.00 | ||
| 20260503193659 | 27 | 113 | 4.8 | 6.4 | 0.00 | 0.00 | 0.00 | ||
| 20260503193158 | -17 | 1.6 | 4.8 | 0.00 | 0.00 | 0.00 | |||
| 20260503192657 | 27 | 90 | 3.2 | 6.4 | 0.00 | 0.00 | 0.00 | ||
| 20260503192158 | 26 | 225 | 1.6 | 6.4 | 0.00 | 0.00 | 0.00 | ||
| 20260503191658 | 26 | 203 | 1.6 | 4.8 | 0.00 | 0.00 | 0.00 | ||
| 20260503191159 | 26 | 68 | 3.2 | 4.8 | 0.00 | 0.00 | 0.00 | ||
| 20260503190659 | 25 | 6.4 | 12.9 | 0.00 | 0.00 | 0.00 | |||
| 20260503190158 | 25 | 0 | 6.4 | 9.7 | 0.00 | 0.00 | 0.00 | ||
| 20260503185657 | 24 | 225 | 9.7 | 14.5 | 0.00 | 0.00 | 0.00 | ||
| 20260503185157 | 25 | 225 | 8.0 | 9.7 | 0.00 | 0.00 | 0.00 | ||
| 20260503184657 | -17 | 6.4 | 8.0 | 0.00 | 0.00 | 0.00 | |||
| 20260503184159 | 23 | 113 | 9.7 | 12.9 | 0.00 | 0.00 | 0.00 | ||
| 20260503183658 | -17 | 9.7 | 14.5 | 0.00 | 0.00 | 0.00 | |||
| 20260503182159 | -17 | 225 | 4.8 | 4.8 | 0.00 | 0.00 | 0.00 | ||
| 20260503174159 | 23 | 0.0 | 0.0 | 0.00 | 0.00 | 0.00 | |||
| 20260503160158 | 19 | 6.4 | 6.4 | 0.00 | 0.00 | 0.00 | |||
| 20260503140157 | 11 | 158 | 0.0 | 0.0 | 0.00 | 0.00 | 0.00 | ||
| 20260503131159 | 10 | 158 | 0.0 | 0.0 | 0.00 | 0.00 | 0.00 | ||
| 20260503130659 | 10 | 113 | 0.0 | 0.0 | 0.00 | 0.00 | 0.00 | ||
| 20260503130158 | 11 | 203 | 0.0 | 0.0 | 0.00 | 0.00 | 0.00 | ||
| 20260503120159 | -17 | 0.0 | 0.0 | 0.00 | 0.00 | 0.00 | |||
| 20260503110657 | -17 | 0.0 | 0.0 | 0.00 | 0.00 | 0.00 | |||
| 20260503110157 | 11 | 90 | 0.0 | 0.0 | 0.00 | 0.00 | 0.00 | ||
| 20260503100159 | 12 | 180 | 0.0 | 0.0 | 0.00 | 0.00 | 0.00 | ||
| 20260503090201 | 13 | 180 | 0.0 | 0.0 | 0.00 | 0.00 | 0.00 | ||
| 20260503081158 | 13 | 113 | 0.0 | 0.0 | 0.00 | 0.00 | 0.00 | ||
| 20260503080657 | 13 | 113 | 0.0 | 0.0 | 0.00 | 0.00 | 0.00 | ||
| 20260503080158 | 14 | 158 | 0.0 | 0.0 | 0.00 | 0.00 | 0.00 | ||
| 20260503072657 | 14 | 45 | 0.0 | 3.2 | 0.00 | 0.00 | 0.00 | ||
| 20260503072158 | 14 | 90 | 0.0 | 0.0 | 0.00 | 0.00 | 0.00 | ||
| 20260503071657 | 14 | 135 | 0.0 | 0.0 | 0.00 | 0.00 | 0.00 | ||
| 20260503071158 | 14 | 158 | 0.0 | 0.0 | 0.00 | 0.00 | 0.00 | ||
| 20260503070659 | 15 | 113 | 0.0 | 0.0 | 0.00 | 0.00 | 0.00 | ||
| 20260503070158 | 15 | 135 | 0.0 | 0.0 | 0.00 | 0.00 | 0.00 | ||
| 20260503060157 | 15 | 225 | 0.0 | 0.0 | 0.00 | 0.00 | 0.00 | ||
| 20260503054657 | 15 | 203 | 0.0 | 0.0 | 0.00 | 0.00 | 0.00 | ||
| 20260503054158 | 15 | 180 | 0.0 | 0.0 | 0.00 | 0.00 | 0.00 | ||
| 20260503053659 | 16 | 135 | 0.0 | 0.0 | 0.00 | 0.00 | 0.00 | ||
| 20260503053158 | 16 | 113 | 0.0 | 0.0 | 0.00 | 0.00 | 0.00 | ||
| 20260503052657 | 16 | 135 | 0.0 | 0.0 | 0.00 | 0.00 | 0.00 | ||
| 20260503052157 | 16 | 113 | 0.0 | 0.0 | 0.00 | 0.00 | 0.00 | ||
| 20260503051658 | 16 | 90 | 0.0 | 0.0 | 0.00 | 0.00 | 0.00 | ||
| 20260503051159 | 16 | 113 | 0.0 | 0.0 | 0.00 | 0.00 | 0.00 | ||
| 20260503050659 | -17 | 0.0 | 0.0 | 0.00 | 0.00 | 0.00 | |||
| 20260503050157 | 16 | 135 | 0.0 | 0.0 | 0.00 | 0.00 | 0.00 | ||
| 20260503045658 | 16 | 158 | 0.0 | 0.0 | 0.00 | 0.00 | 0.00 | ||
| 20260503045159 | 16 | 90 | 0.0 | 0.0 | 0.00 | 0.00 | 0.00 | ||
| 20260503044159 | 17 | 158 | 0.0 | 0.0 | 0.00 | 0.00 | 0.00 | ||
| 20260503043659 | 17 | 135 | 0.0 | 0.0 | 0.00 | 0.00 | 0.00 | ||
| 20260503043158 | 17 | 158 | 0.0 | 0.0 | 0.00 | 0.00 | 0.00 | ||
| 20260503042658 | 17 | 90 | 0.0 | 0.0 | 0.00 | 0.00 | 0.00 | ||
| 20260503042159 | 18 | 90 | 0.0 | 0.0 | 0.00 | 0.00 | 0.00 | ||
| 20260503041659 | 18 | 113 | 0.0 | 0.0 | 0.00 | 0.00 | 0.00 | ||
| 20260503041158 | 18 | 90 | 1.6 | 6.4 | 0.00 | 0.00 | 0.00 | ||
| 20260503040657 | 18 | 113 | 1.6 | 3.2 | 0.00 | 0.00 | 0.00 | ||
| 20260503040157 | 18 | 90 | 3.2 | 6.4 | 0.00 | 0.00 | 0.00 | ||
| 20260503035657 | 18 | 45 | 1.6 | 3.2 | 0.00 | 0.00 | 0.00 | ||
| 20260503035157 | 19 | 45 | 3.2 | 4.8 | 0.00 | 0.00 | 0.00 | ||
| 20260503034657 | 20 | 68 | 0.0 | 0.0 | 0.00 | 0.00 | 0.00 | ||
| 20260503034157 | 20 | 180 | 0.0 | 0.0 | 0.00 | 0.00 | 0.00 | ||
| 20260503033658 | 20 | 180 | 0.0 | 0.0 | 0.00 | 0.00 | 0.00 | ||
| 20260503033159 | 20 | 90 | 0.0 | 0.0 | 0.00 | 0.00 | 0.00 | ||
| 20260503032659 | 21 | 113 | 4.8 | 8.0 | 0.00 | 0.00 | 0.00 | ||
| 20260503032157 | 21 | 315 | 6.4 | 9.7 | 0.00 | 0.00 | 0.00 | ||
| 20260503031657 | -17 | 4.8 | 6.4 | 0.00 | 0.00 | 0.00 | |||
| 20260503031157 | 21 | 135 | 6.4 | 9.7 | 0.00 | 0.00 | 0.00 | ||
| 20260503030658 | 21 | 23 | 6.4 | 11.3 | 0.00 | 0.00 | 0.00 | ||
| 20260503025658 | 22 | 270 | 9.7 | 20.9 | 0.00 | 0.00 | 0.00 | ||
| 20260503025159 | 22 | 225 | 8.0 | 12.9 | 0.00 | 0.00 | 0.00 | ||
| 20260503024659 | -17 | 8.0 | 8.0 | 0.00 | 0.00 | 0.00 | |||
| 20260503022657 | 23 | 113 | 6.4 | 6.4 | 0.00 | 0.00 | 0.00 | ||
| 20260503022158 | 25 | 6.4 | 6.4 | 0.00 | 0.00 | 0.00 | |||
| 20260503021659 | 25 | 113 | 6.4 | 6.4 | 0.00 | 0.00 | 0.00 | ||
| 20260503021159 | 25 | 0.0 | 0.0 | 0.00 | 0.00 | 0.00 | |||
| 20260503015659 | 25 | 3.2 | 3.2 | 0.00 | 0.00 | 0.00 | |||
| 20260503014658 | -17 | 90 | 8.0 | 8.0 | 0.00 | 0.00 | 0.00 | ||
| 20260503013157 | 26 | 4.8 | 4.8 | 0.00 | 0.00 | 0.00 | |||
| 20260503012658 | 26 | 203 | 8.0 | 14.5 | 0.00 | 0.00 | 0.00 | ||
| 20260503012159 | -17 | 203 | 4.8 | 4.8 | 0.00 | 0.00 | 0.00 | ||
| 20260503011657 | 26 | 8.0 | 8.0 | 0.00 | 0.00 | 0.00 | |||
| 20260503011157 | 26 | 338 | 9.7 | 14.5 | 0.00 | 0.00 | 0.00 | ||
| 20260503010658 | 26 | 12.9 | 12.9 | 0.00 | 0.00 | 0.00 | |||
| 20260503010159 | 26 | 293 | 6.4 | 9.7 | 0.00 | 0.00 | 0.00 | ||
| 20260503005658 | 26 | 12.9 | 12.9 | 0.00 | 0.00 | 0.00 | |||
| 20260503002158 | -17 | 23 | 14.5 | 14.5 | 0.00 | 0.00 | 0.00 | ||
| 20260503000159 | 27 | 180 | 19.3 | 22.5 | 0.00 | 0.00 | 0.00 | ||
| 20260502232159 | 27 | 9.7 | 9.7 | 0.00 | 0.00 | 0.00 | |||
| 20260502231158 | 28 | 12.9 | 12.9 | 0.00 | 0.00 | 0.00 | |||
| 20260502225658 | -17 | 9.7 | 14.5 | 0.00 | 0.00 | 0.00 | |||
| 20260502225159 | 27 | 270 | 6.4 | 8.0 | 0.00 | 0.00 | 0.00 | ||
| 20260502223658 | -17 | 248 | 6.4 | 6.4 | 0.00 | 0.00 | 0.00 | ||
| 20260502222158 | 27 | 203 | 6.4 | 12.9 | 0.00 | 0.00 | 0.00 | ||
| 20260502221658 | 27 | 90 | 9.7 | 12.9 | 0.00 | 0.00 | 0.00 | ||
| 20260502221158 | 27 | 225 | 3.2 | 8.0 | 0.00 | 0.00 | 0.00 | ||
| 20260502220657 | 27 | 338 | 9.7 | 14.5 | 0.00 | 0.00 | 0.00 | ||
| 20260502220158 | 26 | 135 | 6.4 | 8.0 | 0.00 | 0.00 | 0.00 | ||
| 20260502215659 | 26 | 23 | 6.4 | 8.0 | 0.00 | 0.00 | 0.00 | ||
| 20260502215159 | 27 | 180 | 9.7 | 14.5 | 0.00 | 0.00 | 0.00 | ||
| 20260502214659 | 26 | 113 | 6.4 | 8.0 | 0.00 | 0.00 | 0.00 | ||
| 20260502214159 | -17 | 3.2 | 6.4 | 0.00 | 0.00 | 0.00 | |||
| 20260502213658 | -17 | 68 | 6.4 | 6.4 | 0.00 | 0.00 | 0.00 | ||
| 20260502205659 | 26 | 270 | 4.8 | 8.0 | 0.00 | 0.00 | 0.00 | ||
| 20260502205159 | -17 | 6.4 | 6.4 | 0.00 | 0.00 | 0.00 | |||
| 20260502204657 | 26 | 45 | 4.8 | 8.0 | 0.00 | 0.00 | 0.00 | ||
| 20260502200659 | -17 | 270 | 4.8 | 4.8 | 0.00 | 0.00 | 0.00 |